Total_Precipitation_Accumulation
0.50 0.52 0.45 0.37 0.32 0.28 0.25 0.22 0.18 0.16 0.14 0.12 0.08 0.07 0.07 0.06 0.04 0.03 0.02 0.02 0.03 0.06 0.07 0.09 0.15 0.23 0.27 0.29 0.32 0.42 0.48 0.42 0.31 0.32 0.24 0.23 0.23 0.16 0.14 0.07 0.02 0.01 0.01
0.46 0.44 0.39 0.33 0.29 0.28 0.25 0.20 0.16 0.14 0.12 0.08 0.07 0.07 0.07 0.05 0.03 0.02 0.02 0.01 0.02 0.02 0.02 0.04 0.08 0.15 0.21 0.27 0.32 0.37 0.43 0.49 0.45 0.44 0.41 0.31 0.28 0.26 0.24 0.18 0.09 0.05 0.03
0.52 0.44 0.41 0.38 0.35 0.32 0.25 0.20 0.16 0.16 0.15 0.12 0.10 0.09 0.08 0.07 0.05 0.03 0.02 0.02 0.01 0.01 0.01 0.02 0.05 0.09 0.14 0.22 0.31 0.40 0.44 0.48 0.49 0.44 0.48 0.48 0.37 0.33 0.25 0.17 0.10 0.08 0.07
0.79 0.65 0.56 0.47 0.39 0.33 0.28 0.26 0.22 0.21 0.20 0.16 0.15 0.15 0.17 0.19 0.16 0.11 0.08 0.05 0.03 0.02 0.01 0.02 0.02 0.05 0.12 0.25 0.38 0.47 0.50 0.50 0.52 0.52 0.53 0.56 0.48 0.37 0.26 0.20 0.18 0.14 0.10
0.87 0.74 0.60 0.47 0.37 0.35 0.38 0.39 0.33 0.28 0.28 0.24 0.22 0.20 0.25 0.30 0.32 0.28 0.18 0.11 0.07 0.04 0.02 0.02 0.02 0.03 0.08 0.18 0.31 0.49 0.54 0.55 0.56 0.57 0.56 0.51 0.44 0.34 0.27 0.22 0.18 0.20 0.14
0.72 0.68 0.52 0.45 0.40 0.36 0.38 0.44 0.43 0.33 0.31 0.30 0.27 0.24 0.25 0.28 0.39 0.33 0.22 0.15 0.11 0.08 0.05 0.03 0.03 0.03 0.04 0.08 0.12 0.25 0.38 0.47 0.54 0.53 0.53 0.50 0.46 0.39 0.35 0.27 0.18 0.14 0.14
0.44 0.45 0.36 0.34 0.40 0.41 0.43 0.43 0.36 0.29 0.32 0.33 0.27 0.22 0.19 0.22 0.24 0.19 0.20 0.23 0.20 0.14 0.11 0.08 0.07 0.05 0.04 0.05 0.09 0.15 0.19 0.22 0.27 0.32 0.39 0.41 0.43 0.39 0.34 0.27 0.20 0.16 0.18
0.20 0.16 0.13 0.21 0.30 0.31 0.29 0.27 0.22 0.22 0.27 0.34 0.28 0.25 0.24 0.20 0.20 0.23 0.21 0.23 0.28 0.27 0.20 0.11 0.10 0.08 0.09 0.11 0.09 0.12 0.15 0.19 0.19 0.17 0.22 0.27 0.28 0.31 0.32 0.34 0.31 0.21 0.15
0.02 0.02 0.04 0.05 0.06 0.06 0.06 0.07 0.10 0.15 0.18 0.17 0.20 0.33 0.31 0.26 0.30 0.28 0.21 0.22 0.28 0.31 0.26 0.22 0.21 0.20 0.28 0.21 0.14 0.14 0.16 0.18 0.19 0.22 0.28 0.30 0.30 0.33 0.36 0.40 0.36 0.29 0.24
0.00 0.00 0.00 0.00 0.01 0.01 0.01 0.01 0.03 0.06 0.08 0.08 0.11 0.21 0.27 0.28 0.26 0.15 0.17 0.24 0.28 0.33 0.33 0.30 0.37 0.29 0.31 0.22 0.14 0.21 0.24 0.23 0.23 0.29 0.30 0.31 0.29 0.31 0.37 0.38 0.43 0.44 0.40
0.00 0.00 0.00 0.00 0.00 0.01 0.02 0.01 0.00 0.01 0.01 0.04 0.06 0.06 0.08 0.09 0.09 0.08 0.14 0.17 0.19 0.26 0.29 0.27 0.22 0.22 0.18 0.17 0.15 0.18 0.26 0.20 0.19 0.24 0.22 0.19 0.18 0.20 0.24 0.28 0.35 0.39 0.41
0.00 0.00 0.00 0.00 0.01 0.01 0.02 0.01 0.00 0.00 0.01 0.01 0.01 0.01 0.01 0.02 0.01 0.02 0.03 0.04 0.06 0.11 0.13 0.15 0.14 0.14 0.13 0.15 0.12 0.15 0.18 0.12 0.15 0.19 0.17 0.13 0.13 0.13 0.13 0.15 0.19 0.25 0.30
0.00 0.01 0.00 0.00 0.01 0.00 0.01 0.01 0.01 0.01 0.01 0.01 0.01 0.01 0.02 0.04 0.03 0.02 0.02 0.02 0.02 0.03 0.04 0.08 0.11 0.15 0.12 0.11 0.11 0.12 0.11 0.12 0.18 0.19 0.17 0.13 0.10 0.09 0.09 0.09 0.11 0.14 0.18
0.00 0.00 0.00 0.00 0.01 0.00 0.00 0.00 0.00 0.01 0.01 0.01 0.01 0.03 0.06 0.08 0.05 0.02 0.03 0.04 0.05 0.04 0.05 0.10 0.15 0.17 0.14 0.14 0.13 0.11 0.13 0.16 0.18 0.19 0.17 0.11 0.06 0.06 0.08 0.08 0.10 0.10 0.11
0.00 0.00 0.00 0.00 0.01 0.01 0.00 0.00 0.00 0.00 0.00 0.01 0.01 0.02 0.02 0.03 0.02 0.02 0.04 0.06 0.06 0.05 0.10 0.22 0.31 0.27 0.22 0.17 0.15 0.17 0.18 0.18 0.18 0.19 0.18 0.12 0.09 0.08 0.07 0.05 0.05 0.07 0.09
0.00 0.00 0.00 0.00 0.01 0.01 0.01 0.01 0.00 0.01 0.01 0.01 0.01 0.01 0.01 0.02 0.03 0.06 0.09 0.12 0.12 0.15 0.24 0.38 0.45 0.47 0.44 0.36 0.28 0.26 0.26 0.24 0.23 0.22 0.20 0.16 0.13 0.11 0.09 0.07 0.06 0.07 0.08
0.00 0.00 0.00 0.00 0.00 0.00 0.00 0.01 0.02 0.01 0.01 0.00 0.00 0.01 0.01 0.03 0.06 0.13 0.18 0.20 0.25 0.44 0.59 0.62 0.62 0.62 0.61 0.49 0.37 0.30 0.23 0.20 0.20 0.19 0.16 0.12 0.10 0.07 0.06 0.05 0.05 0.05 0.05
0.00 0.00 0.00 0.00 0.00 0.00 0.00 0.00 0.02 0.03 0.04 0.02 0.01 0.00 0.01 0.02 0.08 0.18 0.28 0.38 0.44 0.58 0.70 0.72 0.77 0.74 0.67 0.49 0.33 0.23 0.15 0.12 0.11 0.09 0.07 0.04 0.03 0.03 0.02 0.02 0.03 0.02 0.02
0.00 0.00 0.00 0.00 0.00 0.00 0.00 0.00 0.00 0.01 0.01 0.02 0.02 0.01 0.00 0.01 0.03 0.08 0.15 0.20 0.22 0.30 0.38 0.43 0.46 0.44 0.38 0.26 0.16 0.11 0.05 0.02 0.01 0.01 0.01 0.01 0.01 0.01 0.02 0.02 0.03 0.02 0.03
0.00 0.00 0.00 0.00 0.00 0.00 0.00 0.00 0.00 0.00 0.01 0.01 0.01 0.01 0.01 0.02 0.03 0.03 0.04 0.05 0.07 0.09 0.12 0.12 0.12 0.11 0.09 0.06 0.03 0.03 0.03 0.01 0.01 0.00 0.01 0.01 0.02 0.02 0.02 0.02 0.03 0.04 0.04
0.00 0.00 0.00 0.00 0.00 0.00 0.00 0.00 0.00 0.00 0.00 0.00 0.00 0.00 0.01 0.02 0.02 0.02 0.02 0.03 0.03 0.03 0.03 0.04 0.04 0.03 0.02 0.01 0.01 0.01 0.01 0.01 0.00 0.00 0.01 0.01 0.02 0.03 0.03 0.03 0.03 0.03 0.04
0.00 0.00 0.00 0.00 0.00 0.00 0.00 0.00 0.00 0.00 0.00 0.00 0.00 0.00 0.01 0.03 0.04 0.03 0.02 0.02 0.02 0.03 0.02 0.02 0.02 0.02 0.01 0.01 0.01 0.01 0.00 0.00 0.01 0.01 0.01 0.01 0.02 0.02 0.02 0.02 0.03 0.04 0.04
0.00 0.00 0.00 0.00 0.00 0.00 0.00 0.00 0.00 0.00 0.00 0.00 0.00 0.00 0.01 0.02 0.02 0.02 0.02 0.02 0.02 0.02 0.01 0.01 0.01 0.01 0.01 0.01 0.00 0.00 0.00 0.00 0.01 0.01 0.02 0.02 0.03 0.03 0.03 0.04 0.04 0.04 0.03
0.00 0.00 0.00 0.00 0.00 0.00 0.00 0.00 0.00 0.00 0.00 0.00 0.00 0.01 0.00 0.01 0.01 0.01 0.01 0.01 0.01 0.01 0.00 0.00 0.00 0.00 0.00 0.00 0.00 0.00 0.00 0.00 0.01 0.02 0.03 0.03 0.04 0.06 0.07 0.07 0.06 0.07 0.09
0.00 0.00 0.00 0.00 0.00 0.00 0.00 0.00 0.00 0.00 0.00 0.00 0.00 0.01 0.01 0.01 0.01 0.01 0.00 0.00 0.00 0.00 0.00 0.00 0.00 0.00 0.00 0.00 0.00 0.00 0.01 0.01 0.01 0.01 0.01 0.01 0.02 0.04 0.06 0.06 0.06 0.06 0.06
0.00 0.00 0.00 0.00 0.00 0.00 0.00 0.00 0.00 0.00 0.00 0.00 0.00 0.01 0.01 0.01 0.01 0.00 0.00 0.00 0.00 0.00 0.00 0.00 0.00 0.00 0.00 0.00 0.00 0.01 0.01 0.01 0.01 0.01 0.01 0.01 0.02 0.03 0.03 0.03 0.02 0.01 0.01